ZY 1

导读

ZY 1(资源一号02C星)是中国自主研制的国土资源普查业务卫星,于北京时间2011年12月22日成功发射。它继承了资源一号卫星的遥感技术传统,搭载了高分辨率全色相机与多光谱相机,空间分辨率可达2.36米,幅宽54千米。该卫星主要服务于土地资源监管、矿山开发监测、地质灾害防控等国土资源微观调查业务,为我国国土资源精细化管理提供了重要的遥感数据支撑,是我国资源卫星从试验型走向业务化的关键节点。

基本信息
目录编号:
38038
目录名称:
ZY 1
国际标识:
2011-079A
轨道中心:
EARTH
卫星名称:
ZY 1
卫星全名:
--
卫星状态:
在轨 (已飞行5378 天)
发射日期:
2011-12-22 UTC
国别 :
中国 (CN)
星等 :
--
该卫星已列入 空间交会检测服务 Space Conjunction Data Service (SCDS) ,当前飞行风险评估等级: 无高风险
轨道信息
数据来源 国际轨道数据
星历时间: 2026-09-12T07:24:46+0800
5小时前
查看轨道信息
半长轴: 7142.355km
偏心率: 0.0007471
轨道倾角: 98.400°
近地点辐角 54.474°
升交点赤经 320.439°
平近点角 47.706°
近地点: 758.881km
远地点: 769.555km
周期: 100.120分钟
每日圈数: 14.382709
详细信息
使用方式:
暂无
2D轨道图
3D轨道图
轨道高度分析图
轨道倾角分析图
轨道综合分析图
查看轨道综合分析图
交会数据列表
事件ID 空间交会对象 最接近时刻(TCA) 交会距离 交会风险概率(CRP) 交会风险指数(CRI) 操作
CDM_260912-110103-770103-803822
ZY 1 (38038)
2026-09-12T
11:01:54+0000
0.822 km
远距离
2.749476E-5 中风险 0.64
CDM_260913-194603-734003-803823
ZY 1 (38038)
2026-09-13T
19:46:02+0000
2.453 km
极远距离
1.819169E-6 低风险 0.4
CDM_260914-081203-803805-739722
ZY 1 (38038)
2026-09-14T
08:12:31+0000
2.676 km
极远距离
1.474923E-6 低风险 0.38
与全量物体交会距离演化趋势
与全量物体交会风险概率演化趋势